Time,TemperatureF,DewpointF,PressureIn,WindDirection,WindDirectionDegrees,WindSpeedMPH,WindSpeedGustMPH,Humidity,HourlyPrecipIn,Conditions,Clouds,dailyrainin,SoftwareType,DateUTC
2013-06-10 00:04:00,67.1,62.8,29.84,SE,135,0.0,-999.0,86,-99.99,,,0.00,Acu-Link.com,2013-06-10 04:04:00,
2013-06-10 00:19:00,66.4,63.7,29.84,East,90,1.6,-999.0,91,-99.99,,,0.00,Acu-Link.com,2013-06-10 04:19:00,
2013-06-10 00:35:00,65.7,64.2,29.84,SSE,157,2.7,-999.0,95,-99.99,,,0.00,Acu-Link.com,2013-06-10 04:35:00,
2013-06-10 00:50:00,64.8,64.2,29.84,SSE,157,1.1,-999.0,98,-99.99,,,0.00,Acu-Link.com,2013-06-10 04:50:00,
2013-06-10 01:06:00,64.2,63.6,29.84,SW,225,0.0,-999.0,98,-99.99,,,0.00,Acu-Link.com,2013-06-10 05:06:00,
2013-06-10 01:21:00,63.0,52.6,29.84,ENE,67,0.0,-999.0,69,-99.99,,,0.00,Acu-Link.com,2013-06-10 05:21:00,
2013-06-10 01:37:00,62.4,39.6,29.84,East,90,1.6,-999.0,43,-99.99,,,0.00,Acu-Link.com,2013-06-10 05:37:00,
2013-06-10 01:52:00,62.2,62.0,29.83,North,0,3.1,-999.0,99,-99.99,,,0.04,Acu-Link.com,2013-06-10 05:52:00,
2013-06-10 02:08:00,62.1,61.8,29.82,NE,45,0.0,-999.0,99,-99.99,,,0.05,Acu-Link.com,2013-06-10 06:08:00,
2013-06-10 02:24:00,62.1,61.8,29.81,NNE,22,1.6,-999.0,99,-99.99,,,0.05,Acu-Link.com,2013-06-10 06:24:00,
2013-06-10 02:39:00,62.2,62.0,29.80,SSW,202,0.0,-999.0,99,-99.99,,,0.17,Acu-Link.com,2013-06-10 06:39:00,
2013-06-10 02:55:00,62.2,62.0,29.81,NE,45,0.0,-999.0,99,-99.99,,,0.17,Acu-Link.com,2013-06-10 06:55:00,
2013-06-10 03:11:00,62.2,62.0,29.79,NNE,22,0.0,-999.0,99,-99.99,,,0.17,Acu-Link.com,2013-06-10 07:11:00,
2013-06-10 03:26:00,62.2,62.0,29.79,ESE,112,0.0,-999.0,99,-99.99,,,0.17,Acu-Link.com,2013-06-10 07:26:00,
2013-06-10 03:41:00,62.4,62.1,29.78,East,90,1.6,-999.0,99,-99.99,,,0.17,Acu-Link.com,2013-06-10 07:41:00,
2013-06-10 03:57:00,62.6,62.3,29.78,East,90,0.0,-999.0,99,-99.99,,,0.17,Acu-Link.com,2013-06-10 07:57:00,
2013-06-10 04:12:00,62.8,62.5,29.77,East,90,4.7,-999.0,99,-99.99,,,0.17,Acu-Link.com,2013-06-10 08:12:00,
2013-06-10 04:28:00,63.0,62.7,29.77,ENE,67,1.6,-999.0,99,-99.99,,,0.17,Acu-Link.com,2013-06-10 08:28:00,
2013-06-10 04:44:00,63.0,62.7,29.76,ESE,112,2.7,-999.0,99,-99.99,,,0.17,Acu-Link.com,2013-06-10 08:44:00,
2013-06-10 04:59:00,63.0,62.7,29.76,East,90,1.6,-999.0,99,-99.99,,,0.17,Acu-Link.com,2013-06-10 08:59:00,
2013-06-10 05:15:00,62.8,62.5,29.75,ENE,67,1.6,-999.0,99,-99.99,,,0.18,Acu-Link.com,2013-06-10 09:15:00,
2013-06-10 05:30:00,62.8,62.5,29.75,ESE,112,1.6,-999.0,99,-99.99,,,0.18,Acu-Link.com,2013-06-10 09:30:00,
2013-06-10 05:45:00,62.8,62.5,29.75,SE,135,0.0,-999.0,99,-99.99,,,0.19,Acu-Link.com,2013-06-10 09:45:00,
2013-06-10 06:01:00,62.6,62.3,29.75,NNE,22,0.0,-999.0,99,-99.99,,,0.20,Acu-Link.com,2013-06-10 10:01:00,
2013-06-10 06:16:00,62.4,62.1,29.74,WNW,292,0.0,-999.0,99,-99.99,,,0.23,Acu-Link.com,2013-06-10 10:16:00,
2013-06-10 06:32:00,62.4,62.1,29.74,NNE,22,0.0,-999.0,99,-99.99,,,0.24,Acu-Link.com,2013-06-10 10:32:00,
2013-06-10 06:47:00,62.2,62.0,29.73,NE,45,0.0,-999.0,99,-99.99,,,0.33,Acu-Link.com,2013-06-10 10:47:00,
2013-06-10 07:03:00,62.2,62.0,29.73,East,90,0.0,-999.0,99,-99.99,,,0.33,Acu-Link.com,2013-06-10 11:03:00,
2013-06-10 07:18:00,62.4,62.1,29.73,NNE,22,2.7,-999.0,99,-99.99,,,0.35,Acu-Link.com,2013-06-10 11:18:00,
2013-06-10 07:33:00,62.4,62.1,29.73,East,90,2.2,-999.0,99,-99.99,,,0.35,Acu-Link.com,2013-06-10 11:33:00,
2013-06-10 07:49:00,62.6,62.3,29.72,SE,135,0.0,-999.0,99,-99.99,,,0.35,Acu-Link.com,2013-06-10 11:49:00,
2013-06-10 08:04:00,62.8,62.5,29.73,East,90,2.7,-999.0,99,-99.99,,,0.35,Acu-Link.com,2013-06-10 12:04:00,
2013-06-10 08:19:00,63.1,62.9,29.72,ESE,112,0.0,-999.0,99,-99.99,,,0.35,Acu-Link.com,2013-06-10 12:19:00,
2013-06-10 08:35:00,63.1,62.9,29.72,East,90,2.2,-999.0,99,-99.99,,,0.35,Acu-Link.com,2013-06-10 12:35:00,
2013-06-10 08:50:00,63.1,62.9,29.72,South,180,1.6,-999.0,99,-99.99,,,0.35,Acu-Link.com,2013-06-10 12:50:00,
2013-06-10 09:05:00,63.1,62.9,29.72,South,180,0.0,-999.0,99,-99.99,,,0.35,Acu-Link.com,2013-06-10 13:05:00,
2013-06-10 09:20:00,63.3,63.0,29.72,North,0,0.0,-999.0,99,-99.99,,,0.35,Acu-Link.com,2013-06-10 13:20:00,
2013-06-10 09:35:00,63.9,63.6,29.72,ESE,112,0.0,-999.0,99,-99.99,,,0.36,Acu-Link.com,2013-06-10 13:35:00,
2013-06-10 09:51:00,64.6,64.3,29.70,NE,45,2.2,-999.0,99,-99.99,,,0.36,Acu-Link.com,2013-06-10 13:51:00,
2013-06-10 10:21:00,65.3,65.0,29.70,ESE,112,3.1,-999.0,99,-99.99,,,0.36,Acu-Link.com,2013-06-10 14:21:00,
2013-06-10 10:36:00,66.0,65.7,29.69,SE,135,0.0,-999.0,99,-99.99,,,0.36,Acu-Link.com,2013-06-10 14:36:00,
2013-06-10 10:52:00,66.7,66.4,29.69,ESE,112,2.2,-999.0,99,-99.99,,,0.36,Acu-Link.com,2013-06-10 14:52:00,
2013-06-10 11:07:00,67.1,66.8,29.69,NE,45,0.0,-999.0,99,-99.99,,,0.36,Acu-Link.com,2013-06-10 15:07:00,
2013-06-10 11:22:00,68.2,38.0,29.69,South,180,2.7,-999.0,33,-99.99,,,0.36,Acu-Link.com,2013-06-10 15:22:00,
2013-06-10 11:37:00,68.5,50.2,29.69,South,180,3.8,-999.0,52,-99.99,,,0.36,Acu-Link.com,2013-06-10 15:37:00,
2013-06-10 11:52:00,69.6,57.3,29.69,East,90,0.0,-999.0,65,-99.99,,,0.36,Acu-Link.com,2013-06-10 15:52:00,
2013-06-10 12:08:00,70.7,69.2,29.69,East,90,0.0,-999.0,95,-99.99,,,0.36,Acu-Link.com,2013-06-10 16:08:00,
2013-06-10 12:23:00,70.2,68.7,29.68,NE,45,0.0,-999.0,95,-99.99,,,0.36,Acu-Link.com,2013-06-10 16:23:00,
2013-06-10 12:38:00,70.7,70.1,29.68,South,180,0.0,-999.0,98,-99.99,,,0.36,Acu-Link.com,2013-06-10 16:38:00,
2013-06-10 12:53:00,69.6,66.2,29.68,ESE,112,1.6,-999.0,89,-99.99,,,0.36,Acu-Link.com,2013-06-10 16:53:00,
2013-06-10 13:08:00,68.9,62.8,29.68,ESE,112,5.1,-999.0,81,-99.99,,,0.36,Acu-Link.com,2013-06-10 17:08:00,
2013-06-10 13:24:00,70.7,63.9,29.68,NE,45,2.7,-999.0,79,-99.99,,,0.36,Acu-Link.com,2013-06-10 17:24:00,
2013-06-10 13:39:00,70.2,63.3,29.67,ESE,112,3.8,-999.0,79,-99.99,,,0.36,Acu-Link.com,2013-06-10 17:39:00,
2013-06-10 13:54:00,70.2,62.2,29.67,South,180,2.7,-999.0,76,-99.99,,,0.36,Acu-Link.com,2013-06-10 17:54:00,
2013-06-10 14:09:00,70.7,69.5,29.66,East,90,0.0,-999.0,96,-99.99,,,0.36,Acu-Link.com,2013-06-10 18:09:00,
2013-06-10 14:25:00,71.1,69.9,29.66,East,90,2.2,-999.0,96,-99.99,,,0.36,Acu-Link.com,2013-06-10 18:25:00,
2013-06-10 14:40:00,72.1,71.5,29.66,NNW,337,2.7,-999.0,98,-99.99,,,0.36,Acu-Link.com,2013-06-10 18:40:00,
2013-06-10 14:55:00,72.1,71.5,29.66,NNE,22,0.0,-999.0,98,-99.99,,,0.36,Acu-Link.com,2013-06-10 18:55:00,
2013-06-10 15:10:00,74.5,73.9,29.65,SE,135,2.2,-999.0,98,-99.99,,,0.36,Acu-Link.com,2013-06-10 19:10:00,
2013-06-10 15:25:00,72.7,72.1,29.65,East,90,0.0,-999.0,98,-99.99,,,0.37,Acu-Link.com,2013-06-10 19:25:00,
2013-06-10 15:41:00,75.7,74.8,29.65,East,90,2.2,-999.0,97,-99.99,,,0.37,Acu-Link.com,2013-06-10 19:41:00,
2013-06-10 15:56:00,74.5,73.9,29.64,WNW,292,2.7,-999.0,98,-99.99,,,0.37,Acu-Link.com,2013-06-10 19:56:00,
2013-06-10 16:11:00,76.8,76.2,29.64,NE,45,0.0,-999.0,98,-99.99,,,0.37,Acu-Link.com,2013-06-10 20:11:00,
2013-06-10 16:26:00,74.5,73.9,29.64,NE,45,1.1,-999.0,98,-99.99,,,0.37,Acu-Link.com,2013-06-10 20:26:00,
2013-06-10 16:41:00,75.6,74.6,29.63,NE,45,2.7,-999.0,97,-99.99,,,0.37,Acu-Link.com,2013-06-10 20:41:00,
2013-06-10 16:57:00,75.2,74.3,29.63,ENE,67,3.1,-999.0,97,-99.99,,,0.37,Acu-Link.com,2013-06-10 20:57:00,
2013-06-10 17:12:00,75.9,74.1,29.63,South,180,1.6,-999.0,94,-99.99,,,0.37,Acu-Link.com,2013-06-10 21:12:00,
2013-06-10 17:27:00,78.1,73.2,29.63,ESE,112,2.7,-999.0,85,-99.99,,,0.37,Acu-Link.com,2013-06-10 21:27:00,
2013-06-10 17:42:00,75.9,73.7,29.63,NW,315,1.1,-999.0,93,-99.99,,,0.37,Acu-Link.com,2013-06-10 21:42:00,
2013-06-10 17:58:00,78.1,74.6,29.63,NE,45,0.0,-999.0,89,-99.99,,,0.37,Acu-Link.com,2013-06-10 21:58:00,
2013-06-10 18:13:00,77.2,74.7,29.63,ESE,112,0.0,-999.0,92,-99.99,,,0.37,Acu-Link.com,2013-06-10 22:13:00,
2013-06-10 18:28:00,75.0,74.4,29.63,East,90,2.2,-999.0,98,-99.99,,,0.37,Acu-Link.com,2013-06-10 22:28:00,
2013-06-10 18:43:00,74.8,74.2,29.63,ENE,67,2.2,-999.0,98,-99.99,,,0.37,Acu-Link.com,2013-06-10 22:43:00,
2013-06-10 18:58:00,74.8,74.2,29.63,ESE,112,0.0,-999.0,98,-99.99,,,0.37,Acu-Link.com,2013-06-10 22:58:00,
2013-06-10 19:14:00,74.8,74.2,29.63,SE,135,1.6,-999.0,98,-99.99,,,0.37,Acu-Link.com,2013-06-10 23:14:00,
2013-06-10 19:29:00,73.9,73.3,29.63,SE,135,0.0,-999.0,98,-99.99,,,0.37,Acu-Link.com,2013-06-10 23:29:00,
2013-06-10 19:44:00,72.9,72.3,29.63,South,180,1.1,-999.0,98,-99.99,,,0.37,Acu-Link.com,2013-06-10 23:44:00,
2013-06-10 19:59:00,72.3,71.7,29.63,SSW,202,0.0,-999.0,98,-99.99,,,0.37,Acu-Link.com,2013-06-10 23:59:00,
2013-06-10 20:15:00,71.1,70.5,29.63,NNE,22,0.0,-999.0,98,-99.99,,,0.37,Acu-Link.com,2013-06-11 00:15:00,
2013-06-10 20:30:00,69.8,69.2,29.64,North,0,5.8,-999.0,98,-99.99,,,0.37,Acu-Link.com,2013-06-11 00:30:00,
2013-06-10 20:45:00,68.9,68.3,29.65,West,270,0.0,-999.0,98,-99.99,,,0.37,Acu-Link.com,2013-06-11 00:45:00,
2013-06-10 21:00:00,68.0,65.3,29.65,WNW,292,0.0,-999.0,91,-99.99,,,0.39,Acu-Link.com,2013-06-11 01:00:00,
2013-06-10 21:15:00,66.9,57.2,29.65,WNW,292,0.0,-999.0,71,-99.99,,,0.43,Acu-Link.com,2013-06-11 01:15:00,
2013-06-10 21:31:00,66.6,43.4,29.64,SE,135,0.0,-999.0,43,-99.99,,,0.46,Acu-Link.com,2013-06-11 01:31:00,
2013-06-10 22:16:00,65.8,65.6,29.65,West,270,0.0,-999.0,99,-99.99,,,0.52,Acu-Link.com,2013-06-11 02:16:00,
2013-06-10 22:31:00,65.3,65.0,29.66,WNW,292,0.0,-999.0,99,-99.99,,,0.52,Acu-Link.com,2013-06-11 02:31:00,
2013-06-10 22:47:00,64.8,64.5,29.66,WNW,292,0.0,-999.0,99,-99.99,,,0.52,Acu-Link.com,2013-06-11 02:47:00,
2013-06-10 23:02:00,64.2,63.9,29.66,WNW,292,0.0,-999.0,99,-99.99,,,0.52,Acu-Link.com,2013-06-11 03:02:00,
2013-06-10 23:17:00,64.4,64.1,29.66,West,270,0.0,-999.0,99,-99.99,,,0.52,Acu-Link.com,2013-06-11 03:17:00,
2013-06-10 23:32:00,64.2,63.9,29.67,WNW,292,0.0,-999.0,99,-99.99,,,0.52,Acu-Link.com,2013-06-11 03:32:00,
2013-06-10 23:47:00,65.3,65.0,29.67,West,270,0.0,-999.0,99,-99.99,,,0.52,Acu-Link.com,2013-06-11 03:47:00,